Springfield, CO

11:22 PM MDT on September 27, 2016 (GMT -0600)
Springfield

Weather History for KSPD - September, 2012

Change the Weather History Date:

Monday, September 24, 2012

  Actual Average Record
Temperature  
Mean Temperature 70 °F -  
Max Temperature 88 °F 78 °F 93 °F (2005)
Min Temperature 52 °F 48 °F 28 °F (2000)
Degree Days  
Heating Degree Days 0 4  
Month to date heating degree days 53 50  
Since 1 July heating degree days 53 57  
Cooling Degree Days 5 2  
Month to date cooling degree days 113 106  
Year to date cooling degree days 1412 1007  
Growing Degree Days 19 (Base 50)    
Moisture  
Dew Point 35 °F    
Average Humidity 37    
Maximum Humidity 59    
Minimum Humidity 15    
Precipitation  
Precipitation 0.00 in 0.03 in 0.01 in (2000)
Month to date precipitation 0.21  
Year to date precipitation 4.81  
Sea Level Pressure  
Sea Level Pressure 29.85 in    
Wind  
Wind Speed 9 mph (NW)    
Max Wind Speed 32 mph    
Max Gust Speed 38 mph    
T = Trace of Precipitation, MM = Missing Value Source: NWS Daily Summary

Daily Weather History Graph

Daily Weather History Graph

Search for Another Location

Airport or City:

Trip Planner

Search our weather history database for the weather conditions in past years. The results will help you decide how hot, cold, wet, or windy it might be!

Date:

Astronomy

Sep. 24, 2012 Rise Set
Actual Time 6:40 AM MDT 6:43 PM MDT
Civil Twilight 6:14 AM MDT 7:09 PM MDT
Nautical Twilight 5:44 AM MDT 7:39 PM MDT
Astronomical Twilight 5:13 AM MDT 8:10 PM MDT
Moon 3:25 PM MDT (9/24) 1:05 AM MDT (9/24)
Length of Visible Light 12h 55m
Length of Day
12h 03m
Waxing Gibbous, 71% of the Moon is Illuminated
Sep 24
Waxing Gibbous
Sep 29
Full
Oct 8
Last Quarter
Oct 15
New
Oct 21
First Quarter

Hourly Weather History & Observations

Time (MDT) Temp. Dew Point Humidity Pressure Visibility Wind Dir Wind Speed Gust Speed Precip Events Conditions
12:56 AM 52.0 °F 37.0 °F 57% 29.96 in - SSW 4.6 mph - N/A   Unknown
1:56 AM 55.0 °F 39.0 °F 55% 29.91 in - WSW 8.1 mph - N/A   Unknown
2:56 AM 60.1 °F 35.1 °F 39% 29.87 in - WSW 10.4 mph - N/A   Unknown
3:56 AM 64.9 °F 27.0 °F 24% 29.84 in - WSW 13.8 mph - N/A   Unknown
4:56 AM 63.0 °F 27.0 °F 26% 29.86 in - West 9.2 mph - N/A   Unknown
5:56 AM 61.0 °F 27.0 °F 27% 29.87 in - WNW 9.2 mph - N/A   Unknown
6:56 AM 57.9 °F 28.0 °F 32% 29.91 in - NW 6.9 mph - N/A   Unknown
9:56 AM 73.9 °F 35.1 °F 24% 29.93 in - NNW 8.1 mph - N/A   Unknown
10:56 AM 81.0 °F 34.0 °F 18% 29.91 in - NNW 12.7 mph - N/A   Unknown
11:56 AM 82.0 °F 34.0 °F 18% 29.90 in - North 9.2 mph - N/A   Unknown
12:56 PM 86.0 °F 35.1 °F 16% 29.86 in - NNE 17.3 mph 23.0 mph N/A   Unknown
1:56 PM 84.0 °F 34.0 °F 17% 29.82 in - NE 6.9 mph - N/A   Unknown
2:56 PM 84.0 °F 33.1 °F 16% 29.78 in - ESE 5.8 mph - N/A   Unknown
3:56 PM 86.0 °F 33.1 °F 15% 29.75 in - Variable 5.8 mph - N/A   Unknown
4:56 PM 82.9 °F 34.0 °F 17% 29.76 in - East 9.2 mph - N/A   Unknown
5:56 PM 79.0 °F 34.0 °F 20% 29.77 in - ESE 5.8 mph - N/A   Unknown
6:56 PM 75.9 °F 37.9 °F 25% 29.82 in - NNW 19.6 mph 31.1 mph N/A   Unknown
7:06 PM 73.4 °F 41.0 °F 31% 29.99 in - North 25.3 mph 38.0 mph N/A   Unknown
7:56 PM 71.1 °F 41.0 °F 34% 29.84 in - NW 12.7 mph - N/A   Unknown
8:56 PM 70.0 °F 39.9 °F 33% 29.81 in - NNW 12.7 mph - N/A   Unknown
9:56 PM 66.9 °F 39.9 °F 37% 29.81 in - NW 9.2 mph - N/A   Unknown
10:56 PM 66.0 °F 41.0 °F 40% 29.78 in - WNW 8.1 mph - N/A   Unknown
11:56 PM 68.0 °F 41.0 °F 37% 29.76 in - WNW 8.1 mph - N/A   Unknown